QPF
0.01 0.00 0.00 0.00 0.00 0.00 0.00 0.00 0.00 0.00 0.00 0.00 0.00 0.00 0.00 0.00 0.00 0.00 0.00 0.00 0.00 0.01 0.01 0.01 0.01 0.02 0.03 0.03 0.03 0.05 0.04 0.05 0.07 0.07 0.09 0.10 0.09 0.07 0.09 0.09 0.07 0.08 0.10
0.00 0.00 0.00 0.00 0.00 0.00 0.00 0.00 0.00 0.00 0.00 0.00 0.00 0.00 0.00 0.01 0.01 0.01 0.01 0.01 0.01 0.02 0.02 0.03 0.03 0.03 0.03 0.03 0.03 0.05 0.04 0.05 0.05 0.07 0.09 0.10 0.11 0.09 0.08 0.09 0.09 0.09 0.10
0.00 0.00 0.00 0.00 0.00 0.00 0.00 0.00 0.00 0.00 0.00 0.00 0.00 0.01 0.01 0.00 0.00 0.01 0.01 0.01 0.01 0.02 0.02 0.02 0.02 0.02 0.03 0.04 0.04 0.04 0.05 0.05 0.06 0.07 0.10 0.10 0.10 0.10 0.10 0.10 0.08 0.09 0.10
0.00 0.00 0.00 0.00 0.00 0.00 0.00 0.00 0.00 0.00 0.00 0.00 0.00 0.00 0.00 0.00 0.00 0.01 0.01 0.01 0.01 0.01 0.01 0.01 0.02 0.02 0.03 0.04 0.04 0.04 0.06 0.06 0.06 0.07 0.08 0.09 0.11 0.11 0.09 0.09 0.08 0.08 0.10
0.00 0.00 0.00 0.00 0.00 0.00 0.00 0.00 0.00 0.00 0.00 0.00 0.00 0.00 0.00 0.00 0.00 0.00 0.01 0.01 0.02 0.02 0.01 0.02 0.03 0.03 0.04 0.05 0.05 0.05 0.05 0.05 0.05 0.07 0.08 0.07 0.08 0.09 0.09 0.08 0.09 0.09 0.09
0.00 0.00 0.00 0.00 0.00 0.00 0.00 0.00 0.00 0.00 0.00 0.00 0.00 0.00 0.00 0.00 0.00 0.00 0.01 0.01 0.03 0.03 0.02 0.02 0.03 0.03 0.04 0.04 0.04 0.04 0.05 0.05 0.05 0.05 0.07 0.08 0.09 0.09 0.07 0.07 0.08 0.10 0.10
0.00 0.00 0.00 0.00 0.00 0.00 0.00 0.00 0.00 0.00 0.00 0.00 0.00 0.00 0.00 0.01 0.01 0.00 0.00 0.01 0.02 0.02 0.03 0.02 0.02 0.03 0.04 0.04 0.04 0.04 0.04 0.05 0.05 0.05 0.05 0.07 0.08 0.07 0.07 0.07 0.08 0.09 0.09
0.00 0.00 0.00 0.00 0.00 0.00 0.00 0.00 0.00 0.00 0.00 0.00 0.00 0.00 0.01 0.01 0.01 0.00 0.00 0.00 0.00 0.02 0.03 0.03 0.03 0.03 0.04 0.04 0.05 0.05 0.05 0.05 0.05 0.04 0.05 0.06 0.06 0.06 0.06 0.07 0.09 0.09 0.09
0.00 0.00 0.00 0.00 0.00 0.00 0.00 0.00 0.00 0.00 0.00 0.00 0.00 0.01 0.01 0.01 0.01 0.00 0.00 0.00 0.00 0.01 0.02 0.02 0.03 0.04 0.04 0.04 0.06 0.07 0.05 0.05 0.05 0.05 0.06 0.06 0.06 0.05 0.04 0.05 0.08 0.09 0.11
0.00 0.00 0.00 0.00 0.00 0.00 0.00 0.00 0.00 0.00 0.00 0.00 0.00 0.00 0.00 0.00 0.00 0.01 0.00 0.00 0.00 0.01 0.01 0.01 0.02 0.03 0.03 0.03 0.05 0.08 0.07 0.07 0.07 0.07 0.07 0.06 0.07 0.06 0.04 0.04 0.06 0.08 0.09
0.00 0.00 0.00 0.00 0.00 0.00 0.00 0.00 0.00 0.00 0.00 0.00 0.00 0.00 0.00 0.00 0.00 0.00 0.00 0.01 0.00 0.00 0.01 0.01 0.02 0.02 0.02 0.02 0.03 0.05 0.05 0.06 0.06 0.04 0.06 0.06 0.06 0.06 0.06 0.05 0.06 0.08 0.08
0.00 0.00 0.00 0.00 0.00 0.00 0.00 0.00 0.00 0.00 0.00 0.00 0.00 0.00 0.00 0.00 0.00 0.00 0.00 0.00 0.00 0.00 0.00 0.01 0.03 0.03 0.02 0.02 0.02 0.02 0.02 0.03 0.03 0.03 0.03 0.03 0.03 0.03 0.04 0.06 0.06 0.07 0.07
0.00 0.00 0.00 0.00 0.00 0.00 0.00 0.00 0.00 0.00 0.00 0.00 0.00 0.00 0.00 0.00 0.00 0.00 0.00 0.00 0.00 0.00 0.00 0.01 0.03 0.03 0.02 0.01 0.02 0.03 0.03 0.03 0.04 0.03 0.02 0.02 0.03 0.03 0.03 0.04 0.05 0.05 0.05
0.00 0.00 0.00 0.00 0.00 0.00 0.00 0.00 0.00 0.00 0.00 0.00 0.00 0.00 0.00 0.00 0.00 0.00 0.00 0.00 0.00 0.00 0.00 0.02 0.03 0.02 0.02 0.01 0.01 0.02 0.03 0.04 0.04 0.04 0.03 0.02 0.03 0.03 0.02 0.02 0.03 0.04 0.04
0.00 0.00 0.00 0.00 0.00 0.00 0.00 0.00 0.00 0.00 0.00 0.00 0.00 0.00 0.00 0.00 0.00 0.00 0.00 0.00 0.00 0.00 0.01 0.01 0.02 0.01 0.02 0.02 0.02 0.02 0.02 0.03 0.03 0.03 0.03 0.02 0.02 0.02 0.01 0.01 0.03 0.04 0.04
0.00 0.00 0.00 0.00 0.00 0.00 0.00 0.00 0.00 0.00 0.00 0.00 0.00 0.00 0.00 0.00 0.00 0.00 0.00 0.00 0.00 0.01 0.01 0.01 0.01 0.02 0.01 0.01 0.01 0.02 0.03 0.03 0.03 0.03 0.03 0.02 0.01 0.01 0.01 0.01 0.02 0.03 0.03
0.00 0.00 0.00 0.00 0.00 0.00 0.00 0.00 0.00 0.00 0.00 0.00 0.00 0.00 0.00 0.00 0.00 0.00 0.00 0.00 0.00 0.00 0.00 0.00 0.01 0.01 0.01 0.01 0.01 0.01 0.02 0.03 0.03 0.03 0.03 0.03 0.01 0.01 0.01 0.01 0.01 0.01 0.02
0.00 0.00 0.00 0.00 0.00 0.00 0.00 0.00 0.00 0.00 0.00 0.00 0.00 0.00 0.00 0.00 0.00 0.00 0.00 0.00 0.00 0.00 0.00 0.00 0.00 0.01 0.01 0.01 0.01 0.01 0.01 0.02 0.02 0.03 0.03 0.03 0.03 0.02 0.01 0.02 0.02 0.01 0.01
0.00 0.00 0.00 0.00 0.00 0.00 0.00 0.00 0.00 0.00 0.00 0.00 0.00 0.00 0.00 0.00 0.00 0.00 0.00 0.00 0.00 0.00 0.00 0.00 0.00 0.00 0.00 0.00 0.01 0.01 0.02 0.02 0.02 0.02 0.02 0.02 0.04 0.04 0.02 0.03 0.03 0.02 0.02
0.00 0.00 0.00 0.00 0.00 0.00 0.00 0.00 0.00 0.00 0.00 0.00 0.00 0.00 0.00 0.00 0.00 0.00 0.00 0.00 0.00 0.00 0.00 0.00 0.00 0.00 0.00 0.00 0.00 0.00 0.01 0.01 0.02 0.02 0.02 0.01 0.02 0.02 0.02 0.03 0.05 0.04 0.05
0.00 0.00 0.00 0.00 0.00 0.00 0.00 0.00 0.00 0.00 0.00 0.00 0.00 0.00 0.00 0.00 0.00 0.00 0.00 0.00 0.00 0.00 0.00 0.00 0.00 0.00 0.00 0.00 0.00 0.00 0.00 0.00 0.01 0.01 0.02 0.02 0.01 0.00 0.00 0.01 0.04 0.04 0.04
0.00 0.00 0.00 0.00 0.00 0.00 0.00 0.00 0.00 0.00 0.00 0.00 0.00 0.00 0.00 0.00 0.00 0.00 0.00 0.00 0.00 0.00 0.00 0.00 0.00 0.00 0.00 0.00 0.00 0.00 0.00 0.00 0.00 0.00 0.01 0.01 0.00 0.00 0.00 0.00 0.01 0.02 0.03
0.00 0.00 0.00 0.00 0.00 0.00 0.00 0.00 0.00 0.00 0.00 0.00 0.00 0.00 0.00 0.00 0.00 0.00 0.00 0.00 0.00 0.00 0.00 0.00 0.00 0.00 0.00 0.00 0.00 0.00 0.00 0.00 0.00 0.00 0.00 0.00 0.00 0.00 0.00 0.00 0.00 0.00 0.02
0.00 0.00 0.00 0.00 0.00 0.00 0.00 0.00 0.00 0.00 0.00 0.00 0.00 0.00 0.00 0.00 0.00 0.00 0.00 0.00 0.00 0.00 0.00 0.00 0.00 0.00 0.00 0.00 0.00 0.00 0.00 0.00 0.00 0.01 0.00 0.00 0.00 0.01 0.01 0.00 0.01 0.01 0.02
0.00 0.00 0.00 0.00 0.00 0.00 0.00 0.00 0.00 0.00 0.00 0.00 0.00 0.00 0.00 0.00 0.00 0.00 0.00 0.00 0.00 0.00 0.00 0.00 0.00 0.00 0.00 0.00 0.00 0.00 0.00 0.00 0.00 0.00 0.01 0.01 0.01 0.01 0.01 0.01 0.01 0.01 0.02
0.00 0.00 0.00 0.00 0.00 0.00 0.00 0.00 0.00 0.00 0.00 0.00 0.00 0.00 0.00 0.00 0.00 0.00 0.00 0.00 0.00 0.00 0.00 0.00 0.00 0.00 0.00 0.00 0.00 0.00 0.00 0.00 0.00 0.00 0.01 0.01 0.01 0.01 0.01 0.01 0.01 0.00 0.00
MSLP
1008.36 1008.67 1009.00 1009.31 1009.62 1009.91 1010.21 1010.52 1010.84 1011.18 1011.50 1011.78 1011.99 1012.12 1012.17 1012.14 1012.06 1011.95 1011.85 1011.78 1011.73 1011.69 1011.67 1011.62 1011.55 1011.43 1011.29 1011.13 1010.98 1010.86 1010.79 1010.76 1010.76 1010.77 1010.76 1010.71 1010.61 1010.45 1010.23 1009.99 1009.76 1009.58 1009.46
1008.31 1008.67 1009.04 1009.37 1009.67 1009.95 1010.22 1010.52 1010.84 1011.18 1011.52 1011.84 1012.09 1012.26 1012.32 1012.29 1012.20 1012.07 1011.94 1011.85 1011.79 1011.77 1011.77 1011.76 1011.71 1011.62 1011.48 1011.30 1011.11 1010.93 1010.79 1010.71 1010.68 1010.70 1010.73 1010.76 1010.73 1010.65 1010.50 1010.29 1010.05 1009.81 1009.62
1008.27 1008.69 1009.09 1009.44 1009.74 1010.00 1010.25 1010.52 1010.83 1011.18 1011.54 1011.89 1012.18 1012.38 1012.47 1012.46 1012.36 1012.22 1012.07 1011.95 1011.88 1011.85 1011.86 1011.87 1011.85 1011.77 1011.63 1011.43 1011.21 1010.98 1010.80 1010.68 1010.64 1010.67 1010.75 1010.85 1010.91 1010.92 1010.84 1010.68 1010.45 1010.19 1009.93
1008.22 1008.70 1009.14 1009.52 1009.82 1010.06 1010.29 1010.53 1010.82 1011.16 1011.53 1011.90 1012.23 1012.48 1012.61 1012.62 1012.54 1012.39 1012.23 1012.09 1011.99 1011.95 1011.95 1011.96 1011.94 1011.88 1011.74 1011.54 1011.30 1011.05 1010.85 1010.71 1010.67 1010.72 1010.84 1010.99 1011.13 1011.22 1011.22 1011.11 1010.91 1010.64 1010.35
1008.18 1008.70 1009.18 1009.58 1009.88 1010.11 1010.31 1010.52 1010.78 1011.10 1011.48 1011.87 1012.23 1012.51 1012.69 1012.74 1012.68 1012.54 1012.38 1012.22 1012.10 1012.04 1012.02 1012.03 1012.01 1011.96 1011.83 1011.64 1011.41 1011.17 1010.96 1010.83 1010.79 1010.85 1010.99 1011.19 1011.38 1011.53 1011.59 1011.53 1011.37 1011.11 1010.81
1008.14 1008.69 1009.20 1009.62 1009.92 1010.14 1010.31 1010.48 1010.71 1011.00 1011.36 1011.76 1012.14 1012.46 1012.68 1012.78 1012.75 1012.64 1012.48 1012.32 1012.19 1012.11 1012.07 1012.07 1012.06 1012.02 1011.92 1011.76 1011.56 1011.35 1011.15 1011.03 1011.00 1011.06 1011.21 1011.42 1011.64 1011.82 1011.92 1011.90 1011.77 1011.54 1011.25
1008.08 1008.65 1009.19 1009.61 1009.92 1010.13 1010.27 1010.40 1010.59 1010.85 1011.18 1011.57 1011.96 1012.31 1012.57 1012.71 1012.73 1012.65 1012.51 1012.36 1012.22 1012.13 1012.09 1012.08 1012.08 1012.07 1012.01 1011.90 1011.75 1011.57 1011.42 1011.31 1011.28 1011.33 1011.47 1011.67 1011.88 1012.06 1012.17 1012.19 1012.09 1011.89 1011.62
1007.98 1008.56 1009.10 1009.54 1009.85 1010.05 1010.17 1010.28 1010.42 1010.64 1010.95 1011.32 1011.71 1012.07 1012.36 1012.54 1012.60 1012.56 1012.45 1012.31 1012.19 1012.10 1012.06 1012.06 1012.09 1012.11 1012.10 1012.05 1011.95 1011.83 1011.71 1011.62 1011.59 1011.63 1011.73 1011.89 1012.07 1012.24 1012.35 1012.38 1012.32 1012.16 1011.92
1007.82 1008.38 1008.92 1009.37 1009.69 1009.89 1010.01 1010.10 1010.22 1010.41 1010.68 1011.03 1011.40 1011.77 1012.08 1012.29 1012.39 1012.39 1012.31 1012.20 1012.09 1012.02 1011.99 1012.02 1012.07 1012.13 1012.18 1012.19 1012.15 1012.08 1012.00 1011.93 1011.89 1011.90 1011.96 1012.07 1012.21 1012.35 1012.45 1012.49 1012.46 1012.35 1012.17
1007.55 1008.09 1008.62 1009.08 1009.42 1009.64 1009.78 1009.88 1009.99 1010.17 1010.42 1010.74 1011.10 1011.46 1011.77 1012.00 1012.13 1012.16 1012.12 1012.04 1011.96 1011.91 1011.91 1011.96 1012.04 1012.14 1012.24 1012.30 1012.32 1012.29 1012.24 1012.18 1012.12 1012.10 1012.12 1012.19 1012.28 1012.39 1012.49 1012.55 1012.56 1012.50 1012.38
1007.15 1007.66 1008.19 1008.65 1009.02 1009.28 1009.46 1009.59 1009.73 1009.92 1010.17 1010.47 1010.82 1011.17 1011.48 1011.71 1011.86 1011.92 1011.91 1011.86 1011.82 1011.79 1011.82 1011.89 1012.01 1012.14 1012.27 1012.37 1012.43 1012.44 1012.40 1012.34 1012.28 1012.23 1012.21 1012.24 1012.30 1012.39 1012.49 1012.58 1012.63 1012.64 1012.59
1006.64 1007.10 1007.61 1008.08 1008.49 1008.80 1009.05 1009.25 1009.44 1009.66 1009.93 1010.24 1010.58 1010.92 1011.22 1011.46 1011.62 1011.70 1011.72 1011.70 1011.68 1011.69 1011.74 1011.84 1011.98 1012.13 1012.29 1012.41 1012.49 1012.52 1012.49 1012.43 1012.35 1012.28 1012.24 1012.23 1012.28 1012.36 1012.47 1012.59 1012.70 1012.77 1012.79
1006.03 1006.44 1006.92 1007.40 1007.83 1008.21 1008.53 1008.81 1009.09 1009.37 1009.69 1010.02 1010.37 1010.70 1011.00 1011.24 1011.41 1011.50 1011.55 1011.56 1011.58 1011.61 1011.69 1011.81 1011.96 1012.13 1012.29 1012.42 1012.51 1012.53 1012.51 1012.44 1012.35 1012.27 1012.22 1012.20 1012.24 1012.33 1012.46 1012.61 1012.76 1012.88 1012.95
1005.38 1005.72 1006.15 1006.62 1007.08 1007.51 1007.92 1008.29 1008.66 1009.02 1009.39 1009.77 1010.14 1010.49 1010.79 1011.04 1011.21 1011.33 1011.40 1011.45 1011.49 1011.56 1011.66 1011.79 1011.95 1012.12 1012.28 1012.41 1012.49 1012.51 1012.48 1012.41 1012.32 1012.23 1012.18 1012.16 1012.21 1012.31 1012.45 1012.62 1012.79 1012.94 1013.04
1004.75 1005.01 1005.38 1005.81 1006.27 1006.74 1007.21 1007.67 1008.12 1008.57 1009.02 1009.45 1009.86 1010.23 1010.55 1010.81 1011.01 1011.15 1011.25 1011.33 1011.41 1011.51 1011.63 1011.78 1011.94 1012.11 1012.25 1012.37 1012.43 1012.44 1012.41 1012.34 1012.25 1012.18 1012.13 1012.13 1012.18 1012.28 1012.43 1012.60 1012.77 1012.92 1013.02
1004.20 1004.37 1004.65 1005.02 1005.46 1005.94 1006.45 1006.97 1007.50 1008.02 1008.54 1009.03 1009.48 1009.89 1010.24 1010.53 1010.75 1010.93 1011.07 1011.19 1011.30 1011.43 1011.57 1011.73 1011.89 1012.05 1012.18 1012.27 1012.33 1012.33 1012.30 1012.24 1012.17 1012.11 1012.08 1012.09 1012.15 1012.25 1012.39 1012.54 1012.69 1012.80 1012.87
1003.80 1003.85 1004.04 1004.32 1004.70 1005.16 1005.67 1006.22 1006.79 1007.37 1007.94 1008.49 1009.00 1009.45 1009.84 1010.16 1010.43 1010.65 1010.83 1010.99 1011.14 1011.29 1011.45 1011.61 1011.77 1011.91 1012.03 1012.11 1012.15 1012.16 1012.13 1012.09 1012.04 1012.01 1012.00 1012.03 1012.10 1012.19 1012.30 1012.42 1012.52 1012.58 1012.59
1003.55 1003.50 1003.57 1003.76 1004.05 1004.44 1004.91 1005.45 1006.04 1006.66 1007.27 1007.86 1008.41 1008.91 1009.34 1009.72 1010.03 1010.29 1010.52 1010.72 1010.90 1011.07 1011.24 1011.40 1011.55 1011.67 1011.77 1011.83 1011.87 1011.88 1011.87 1011.86 1011.84 1011.84 1011.87 1011.92 1011.99 1012.08 1012.16 1012.23 1012.27 1012.26 1012.21
1003.47 1003.32 1003.27 1003.34 1003.52 1003.83 1004.23 1004.73 1005.30 1005.91 1006.54 1007.16 1007.75 1008.29 1008.78 1009.20 1009.57 1009.88 1010.15 1010.38 1010.59 1010.77 1010.94 1011.08 1011.21 1011.31 1011.39 1011.44 1011.47 1011.49 1011.51 1011.52 1011.55 1011.60 1011.66 1011.74 1011.82 1011.90 1011.96 1011.98 1011.97 1011.90 1011.78
1003.50 1003.26 1003.11 1003.06 1003.13 1003.33 1003.65 1004.08 1004.61 1005.19 1005.82 1006.45 1007.06 1007.64 1008.17 1008.64 1009.06 1009.41 1009.72 1009.98 1010.21 1010.40 1010.55 1010.68 1010.78 1010.85 1010.90 1010.94 1010.97 1011.00 1011.04 1011.09 1011.17 1011.26 1011.36 1011.47 1011.58 1011.66 1011.70 1011.70 1011.65 1011.54 1011.37
1003.60 1003.29 1003.05 1002.89 1002.85 1002.93 1003.16 1003.50 1003.96 1004.51 1005.11 1005.73 1006.36 1006.97 1007.54 1008.05 1008.51 1008.92 1009.26 1009.55 1009.78 1009.97 1010.11 1010.21 1010.28 1010.32 1010.35 1010.37 1010.40 1010.44 1010.50 1010.60 1010.71 1010.85 1011.00 1011.15 1011.28 1011.37 1011.42 1011.41 1011.34 1011.21 1011.03
1003.72 1003.35 1003.02 1002.77 1002.63 1002.61 1002.73 1002.99 1003.37 1003.86 1004.42 1005.03 1005.66 1006.28 1006.88 1007.44 1007.94 1008.38 1008.76 1009.08 1009.33 1009.52 1009.65 1009.73 1009.78 1009.79 1009.80 1009.80 1009.83 1009.87 1009.96 1010.08 1010.24 1010.42 1010.61 1010.80 1010.96 1011.08 1011.15 1011.15 1011.09 1010.97 1010.80
1003.78 1003.37 1002.99 1002.66 1002.42 1002.31 1002.34 1002.50 1002.80 1003.22 1003.73 1004.31 1004.92 1005.55 1006.17 1006.76 1007.31 1007.80 1008.22 1008.57 1008.85 1009.05 1009.19 1009.27 1009.31 1009.31 1009.30 1009.30 1009.32 1009.38 1009.48 1009.63 1009.82 1010.03 1010.26 1010.48 1010.67 1010.82 1010.91 1010.94 1010.91 1010.82 1010.68
1003.78 1003.33 1002.90 1002.51 1002.20 1002.00 1001.94 1002.01 1002.22 1002.56 1003.01 1003.54 1004.13 1004.75 1005.38 1005.99 1006.58 1007.12 1007.59 1007.99 1008.32 1008.57 1008.74 1008.85 1008.90 1008.92 1008.92 1008.93 1008.95 1009.02 1009.13 1009.29 1009.50 1009.73 1009.98 1010.23 1010.45 1010.63 1010.76 1010.82 1010.83 1010.78 1010.68
1003.69 1003.22 1002.75 1002.31 1001.94 1001.66 1001.51 1001.50 1001.62 1001.87 1002.23 1002.69 1003.23 1003.83 1004.45 1005.09 1005.71 1006.30 1006.84 1007.32 1007.72 1008.05 1008.29 1008.46 1008.56 1008.62 1008.66 1008.69 1008.74 1008.82 1008.94 1009.11 1009.33 1009.57 1009.84 1010.10 1010.34 1010.54 1010.70 1010.80 1010.85 1010.84 1010.79
1003.55 1003.06 1002.56 1002.08 1001.66 1001.32 1001.08 1000.96 1000.98 1001.13 1001.39 1001.77 1002.24 1002.78 1003.38 1004.03 1004.68 1005.33 1005.94 1006.51 1007.02 1007.45 1007.80 1008.06 1008.26 1008.40 1008.50 1008.58 1008.67 1008.78 1008.91 1009.09 1009.31 1009.56 1009.82 1010.09 1010.35 1010.57 1010.75 1010.89 1010.97 1011.00 1010.99
Thickness
5772 5771 5766 5762 5758 5754 5750 5745 5740 5736 5731 5725 5720 5715 5712 5710 5707 5704 5700 5696 5693 5690 5688 5686 5686 5685 5683 5682 5683 5682 5683 5685 5690 5691 5693 5701 5708 5712 5716 5720 5725 5728 5731
5770 5766 5763 5760 5756 5752 5748 5744 5740 5735 5730 5724 5720 5717 5712 5709 5706 5702 5698 5695 5691 5688 5686 5684 5682 5682 5680 5679 5679 5678 5678 5681 5685 5684 5683 5685 5692 5702 5711 5714 5718 5723 5726
5770 5765 5761 5758 5754 5750 5747 5743 5739 5734 5729 5725 5720 5715 5711 5707 5703 5699 5696 5693 5690 5687 5685 5683 5681 5680 5679 5677 5676 5676 5675 5675 5679 5683 5681 5679 5680 5689 5700 5707 5712 5717 5720
5772 5766 5761 5757 5753 5750 5747 5743 5739 5735 5730 5725 5718 5712 5706 5701 5700 5697 5694 5693 5690 5687 5684 5682 5680 5679 5678 5676 5675 5676 5675 5674 5673 5678 5682 5684 5685 5683 5686 5696 5704 5710 5714
5772 5766 5762 5758 5755 5752 5747 5743 5738 5734 5729 5725 5719 5713 5707 5704 5701 5698 5694 5692 5689 5687 5685 5682 5680 5679 5677 5676 5675 5674 5674 5674 5673 5674 5677 5680 5683 5686 5684 5685 5693 5701 5707
5772 5768 5764 5759 5754 5751 5746 5742 5737 5732 5728 5724 5720 5714 5708 5704 5700 5696 5693 5690 5688 5686 5684 5683 5680 5679 5677 5675 5674 5673 5673 5673 5673 5674 5676 5676 5678 5679 5682 5682 5686 5691 5698
5769 5765 5760 5755 5751 5747 5744 5740 5735 5730 5728 5724 5720 5716 5711 5706 5701 5696 5693 5690 5687 5685 5683 5682 5680 5678 5676 5675 5674 5673 5672 5673 5673 5673 5674 5677 5679 5681 5681 5681 5682 5685 5692
5767 5763 5760 5755 5751 5747 5743 5739 5735 5730 5727 5724 5721 5717 5713 5707 5703 5699 5695 5691 5688 5686 5684 5682 5680 5678 5676 5675 5674 5673 5672 5673 5673 5674 5674 5675 5677 5680 5681 5680 5679 5679 5683
5766 5763 5760 5756 5752 5747 5743 5740 5736 5731 5728 5725 5721 5717 5713 5708 5704 5701 5698 5694 5691 5688 5685 5682 5680 5678 5677 5675 5674 5673 5672 5672 5672 5673 5674 5674 5676 5678 5680 5681 5681 5678 5675
5766 5764 5760 5757 5753 5749 5745 5742 5737 5733 5729 5726 5722 5718 5714 5710 5706 5702 5698 5694 5692 5689 5686 5683 5681 5679 5677 5675 5674 5672 5672 5672 5672 5673 5673 5673 5675 5676 5677 5679 5680 5680 5677
5765 5763 5760 5758 5754 5750 5746 5741 5737 5734 5730 5726 5723 5719 5714 5711 5707 5703 5699 5696 5693 5690 5687 5684 5681 5679 5677 5676 5673 5672 5672 5671 5671 5672 5672 5673 5674 5673 5674 5676 5677 5677 5677
5767 5764 5761 5757 5753 5749 5745 5742 5738 5734 5731 5727 5724 5719 5716 5712 5707 5703 5701 5698 5694 5691 5688 5685 5682 5680 5678 5676 5674 5672 5672 5671 5670 5671 5671 5671 5672 5671 5672 5673 5674 5675 5676
5766 5763 5759 5755 5752 5749 5746 5743 5740 5736 5732 5728 5723 5719 5715 5712 5707 5704 5702 5699 5696 5693 5690 5686 5682 5680 5678 5676 5675 5673 5672 5672 5671 5671 5670 5670 5670 5669 5670 5671 5672 5673 5674
5764 5761 5756 5754 5751 5749 5746 5743 5740 5737 5733 5728 5723 5719 5715 5712 5709 5706 5703 5700 5697 5694 5690 5687 5684 5681 5679 5677 5675 5674 5673 5672 5671 5671 5670 5670 5669 5668 5668 5669 5669 5670 5669
5763 5760 5756 5754 5751 5749 5746 5744 5740 5737 5734 5728 5723 5719 5716 5713 5709 5706 5703 5700 5697 5694 5691 5688 5685 5682 5679 5676 5674 5673 5673 5671 5670 5670 5669 5669 5668 5668 5667 5666 5665 5666 5665
5762 5762 5759 5755 5752 5749 5746 5743 5740 5737 5734 5728 5723 5720 5716 5712 5708 5705 5702 5699 5696 5693 5691 5688 5685 5681 5679 5676 5674 5672 5671 5670 5669 5668 5668 5668 5667 5666 5666 5666 5665 5664 5662
5763 5761 5760 5757 5755 5752 5749 5743 5741 5738 5733 5728 5723 5719 5715 5711 5708 5705 5702 5698 5695 5692 5689 5687 5684 5681 5678 5677 5675 5673 5671 5670 5668 5668 5667 5667 5667 5664 5663 5663 5663 5663 5662
5762 5761 5760 5759 5758 5756 5752 5747 5742 5737 5732 5727 5723 5719 5715 5710 5707 5703 5700 5697 5695 5692 5689 5686 5684 5681 5678 5676 5674 5673 5671 5670 5669 5668 5667 5665 5663 5663 5661 5661 5660 5659 5660
5762 5761 5760 5759 5757 5755 5752 5747 5741 5736 5731 5726 5722 5718 5714 5709 5705 5702 5699 5697 5694 5691 5688 5687 5684 5680 5677 5675 5673 5671 5669 5668 5667 5667 5665 5664 5661 5661 5660 5658 5656 5656 5656
5761 5759 5758 5756 5753 5752 5750 5744 5739 5734 5729 5726 5722 5719 5714 5709 5704 5701 5698 5696 5693 5690 5688 5686 5684 5681 5677 5675 5672 5670 5667 5665 5665 5664 5662 5661 5659 5658 5656 5654 5652 5650 5651
5756 5755 5752 5749 5748 5748 5745 5739 5736 5732 5730 5726 5722 5717 5713 5709 5704 5701 5698 5694 5692 5689 5686 5684 5683 5680 5677 5673 5670 5667 5664 5662 5661 5660 5658 5656 5655 5654 5652 5651 5648 5647 5648
5749 5748 5744 5743 5744 5744 5740 5735 5731 5731 5729 5724 5718 5714 5711 5707 5704 5698 5695 5692 5689 5685 5683 5681 5679 5678 5675 5671 5668 5665 5662 5660 5657 5655 5654 5652 5651 5650 5648 5647 5646 5646 5645
5742 5741 5738 5736 5737 5737 5734 5729 5728 5728 5724 5718 5714 5710 5707 5704 5700 5695 5691 5688 5685 5682 5679 5677 5674 5672 5671 5668 5665 5662 5660 5657 5653 5651 5650 5649 5647 5646 5644 5643 5642 5641 5639
5734 5733 5731 5729 5728 5730 5729 5727 5725 5723 5718 5713 5709 5706 5702 5699 5695 5691 5687 5682 5678 5676 5674 5672 5669 5667 5665 5661 5659 5656 5655 5652 5649 5646 5645 5644 5643 5641 5638 5637 5636 5635 5633
5728 5727 5724 5723 5723 5723 5722 5722 5720 5717 5712 5709 5705 5702 5698 5694 5688 5683 5678 5676 5672 5670 5668 5666 5664 5660 5657 5653 5653 5650 5649 5646 5644 5642 5640 5638 5635 5633 5631 5630 5629 5628 5627
5720 5719 5718 5717 5718 5717 5716 5715 5714 5712 5708 5704 5701 5697 5693 5688 5683 5676 5670 5667 5665 5664 5662 5661 5658 5654 5652 5649 5647 5645 5643 5642 5640 5636 5632 5630 5627 5624 5622 5620 5619 5618 5617